Temperature
2 2 2 2 3 3 2 2 2 3 4 5 5 4 5 5 5 5 5 5 5 4 4 5 5 5 5 5 6 6 6 6 7 7 7 7 7 8 8 8 9 9 9 9
1 2 2 2 3 3 3 3 3 3 4 5 4 4 4 4 4 4 5 4 4 4 4 4 4 5 5 5 5 6 6 6 6 6 7 7 7 7 7 8 8 9 9 9
1 1 1 2 3 3 3 3 3 3 4 4 4 4 4 4 4 4 4 4 4 4 4 4 4 4 5 5 5 5 5 5 6 6 6 6 6 6 7 7 8 8 8 9
0 0 1 3 4 4 3 4 3 3 3 3 3 4 4 5 4 4 4 4 3 3 3 4 4 4 4 4 5 5 5 5 5 5 5 6 6 6 6 7 7 7 8 8
0 -0 1 2 3 3 3 3 3 3 3 3 4 3 4 5 4 4 3 3 3 3 3 3 4 4 4 4 4 4 5 5 5 5 5 5 5 5 6 6 7 7 7 8
0 0 1 3 4 4 3 2 3 3 2 3 2 1 2 4 3 3 3 3 3 3 3 3 3 3 3 4 4 4 4 4 4 4 5 5 5 5 5 6 6 7 7 7
0 0 1 2 3 4 2 2 4 4 3 3 2 2 3 3 3 3 2 2 2 2 2 3 3 3 3 3 3 3 3 4 4 4 4 5 5 5 5 6 6 6 6 7
-0 0 1 3 3 2 3 4 4 4 4 3 3 3 3 3 2 2 2 2 2 2 2 2 2 2 2 3 3 3 3 3 4 4 4 4 5 5 5 5 5 6 6 6
1 2 3 4 4 5 5 4 4 4 4 3 3 3 2 2 2 2 2 1 1 1 1 2 2 2 2 2 2 2 3 3 3 4 4 4 4 5 5 5 5 5 5 5
-0 1 2 3 4 4 4 4 4 3 3 3 2 2 2 1 1 1 1 1 1 1 1 1 2 2 2 2 2 2 2 2 3 3 4 4 4 4 5 5 5 5 5 5
0 1 1 3 4 4 4 3 3 3 3 2 2 2 1 1 1 1 1 1 0 0 0 1 1 1 2 2 2 2 2 2 2 3 3 3 4 4 4 4 4 4 4 5
1 2 1 2 4 4 3 3 3 2 2 2 1 1 1 1 0 0 0 0 0 0 0 1 1 1 1 2 2 2 2 2 2 2 3 3 3 4 4 4 4 4 4 4
3 4 3 3 3 3 3 2 2 2 1 1 1 1 0 0 0 0 0 0 -0 -0 0 0 1 1 1 1 1 1 1 1 2 2 2 3 3 3 3 4 4 4 4 4
3 3 2 2 2 2 2 2 1 1 1 1 0 0 -0 -0 -0 -0 -0 -0 -0 -0 -0 -0 0 0 1 1 1 1 1 1 1 2 2 2 2 3 3 3 3 3 4 4
2 2 2 2 2 2 1 1 0 0 0 0 -0 -0 -1 -1 -1 -1 -1 -1 -1 -1 -1 -0 -0 0 0 0 0 1 1 1 1 1 2 2 2 2 2 2 3 3 3 3
2 1 1 1 1 1 0 0 -0 -0 -0 -1 -1 -1 -1 -1 -1 -1 -1 -1 -1 -1 -1 -1 -1 -1 -1 -0 -0 0 0 1 1 1 1 2 2 2 2 2 2 2 2 3
0 0 0 0 0 0 -0 -1 -1 -1 -1 -1 -1 -2 -2 -2 -2 -2 -2 -2 -2 -2 -2 -2 -1 -1 -1 -1 -1 -0 -0 0 1 1 1 1 1 1 1 2 2 2 2 2
1 0 0 -0 -0 -1 -1 -1 -2 -2 -2 -2 -2 -2 -2 -3 -3 -2 -2 -2 -2 -2 -2 -2 -2 -2 -2 -2 -1 -1 -1 -0 -0 -0 0 1 1 1 1 1 1 2 2 2
0 -0 -0 -1 -1 -1 -2 -2 -2 -2 -3 -3 -3 -3 -3 -3 -3 -3 -3 -3 -3 -3 -2 -2 -2 -3 -2 -2 -2 -2 -1 -1 -1 -1 -0 -0 0 0 0 0 1 1 1 1
-1 -1 -1 -1 -2 -2 -2 -3 -3 -3 -3 -3 -3 -3 -4 -3 -4 -4 -3 -3 -3 -3 -3 -3 -3 -3 -3 -3 -3 -2 -2 -2 -2 -1 -1 -1 -1 -0 -0 -0 0 1 1 1
-1 -2 -2 -2 -3 -3 -3 -3 -4 -4 -4 -4 -4 -4 -4 -4 -4 -4 -4 -4 -4 -4 -4 -4 -4 -3 -3 -3 -3 -3 -3 -3 -2 -2 -2 -1 -1 -1 -1 -1 -0 0 0 1
-2 -3 -3 -3 -4 -4 -4 -4 -4 -5 -5 -5 -5 -5 -5 -5 -5 -5 -5 -5 -4 -5 -5 -4 -4 -4 -4 -4 -4 -4 -3 -3 -3 -2 -2 -2 -2 -2 -1 -1 -1 -1 -0 0
-3 -4 -4 -4 -4 -5 -5 -5 -5 -5 -5 -5 -6 -6 -6 -6 -6 -6 -6 -5 -5 -5 -5 -5 -5 -5 -4 -4 -4 -4 -4 -3 -3 -3 -3 -2 -2 -2 -2 -1 -1 -1 -1 -0
-4 -5 -5 -5 -5 -6 -6 -6 -6 -6 -6 -6 -6 -6 -6 -6 -6 -6 -6 -6 -6 -6 -6 -5 -5 -5 -5 -4 -4 -4 -4 -3 -3 -3 -2 -2 -2 -2 -2 -2 -2 -1 -1 -1
-5 -5 -6 -6 -6 -6 -6 -7 -7 -7 -7 -7 -7 -7 -7 -7 -7 -7 -7 -6 -6 -6 -6 -6 -5 -5 -5 -4 -4 -4 -4 -3 -3 -3 -3 -3 -2 -2 -2 -2 -2 -1 -1 -1
-6 -6 -7 -7 -7 -7 -7 -7 -8 -8 -8 -8 -7 -7 -7 -7 -7 -7 -7 -7 -7 -6 -6 -6 -6 -5 -5 -5 -4 -4 -4 -3 -3 -3 -3 -3 -3 -3 -2 -2 -2 -2 -1 -1
-7 -7 -7 -7 -8 -8 -8 -8 -8 -8 -8 -9 -8 -8 -8 -8 -8 -8 -7 -7 -7 -7 -7 -6 -6 -5 -5 -5 -4 -4 -4 -4 -3 -3 -3 -3 -3 -3 -3 -2 -2 -2 -2 -1
Wind_Speed
13 14 12 15 18 14 13 12 12 16 18 21 17 13 13 12 12 11 11 10 11 10 10 9 9 8 7 7 5 3 3 3 3 3 2 2 2 3 4 5 6 7 9 10
9 10 12 17 20 18 16 13 15 18 21 17 12 10 10 11 10 10 10 10 11 11 11 11 10 9 8 7 6 4 3 3 3 2 2 2 2 2 3 4 4 5 7 9
7 7 8 11 11 11 8 8 9 12 13 9 10 10 10 10 9 8 10 10 11 11 11 10 10 8 7 6 6 4 4 3 2 2 2 3 3 3 3 3 3 4 5 6
5 5 8 9 4 6 8 11 11 10 8 8 10 11 10 7 5 8 10 10 10 10 10 10 9 9 7 6 5 4 4 4 3 2 3 3 2 3 3 3 4 5 5 5
3 5 10 10 7 5 6 9 7 7 8 8 8 7 7 6 5 7 9 9 9 9 9 9 9 9 7 6 5 4 5 4 3 3 4 4 3 3 3 3 3 3 4 5
5 5 8 8 4 1 1 7 5 4 6 7 5 7 8 8 8 8 8 8 8 9 8 8 9 8 6 6 5 5 5 5 4 3 4 4 4 3 3 3 3 2 3 3
10 9 10 9 4 2 2 8 5 4 6 6 6 8 8 9 9 8 8 9 8 8 8 8 8 7 7 6 6 6 5 4 4 4 4 4 3 3 3 2 1 1 2 2
7 8 11 6 5 6 9 6 5 6 6 7 8 9 9 9 9 8 8 9 8 8 9 9 7 7 7 6 6 6 4 4 4 4 4 3 3 2 2 2 2 1 1 1
11 12 7 6 8 7 5 6 7 6 8 8 9 9 9 9 9 8 8 8 8 8 10 9 8 7 7 7 6 5 4 5 5 5 4 3 2 2 2 2 2 2 2 2
8 12 10 9 8 7 7 8 8 8 8 7 9 9 9 8 9 8 8 9 8 8 9 10 9 7 6 6 5 5 5 4 4 4 4 3 2 2 2 2 2 2 3 2
10 10 8 9 10 11 9 8 8 8 8 8 9 9 9 8 9 8 8 8 7 8 9 10 9 7 6 5 4 4 4 4 4 4 3 3 4 3 3 3 4 4 4 3
12 10 8 9 8 8 8 9 9 9 9 8 7 9 9 8 8 8 8 8 8 8 9 9 8 8 6 5 4 4 4 4 3 3 3 3 3 4 3 4 4 5 5 5
15 11 10 11 9 8 8 8 8 7 8 8 7 7 7 8 8 8 8 8 8 8 9 9 8 8 7 6 5 4 4 5 4 4 3 3 2 2 3 4 2 3 4 4
11 9 9 9 9 8 8 8 7 6 7 6 7 7 7 7 8 8 9 8 8 8 8 8 8 8 7 6 5 5 5 6 5 4 3 3 3 3 2 2 3 2 1 2
10 10 10 8 7 6 6 5 5 6 7 7 6 6 7 8 9 9 9 8 8 8 8 8 8 8 7 6 5 5 5 4 4 3 3 3 2 2 2 3 3 2 1 1
6 6 7 7 8 7 5 5 6 7 7 7 7 7 8 8 9 9 9 7 8 9 9 8 8 8 7 6 6 5 4 7 5 3 2 2 2 2 2 2 2 2 2 2
6 7 7 6 7 7 6 6 6 7 7 7 8 8 8 8 8 9 9 8 8 8 8 8 8 8 6 6 6 5 4 5 5 3 2 2 2 3 3 3 3 3 3 3
8 9 8 7 6 6 5 5 5 6 6 7 7 7 7 8 9 10 10 9 9 8 8 7 7 7 6 6 5 4 4 3 3 3 3 3 3 3 3 3 3 3 2 2
4 5 4 4 4 4 4 4 5 5 6 5 6 7 8 8 9 9 9 8 9 10 9 6 10 8 7 7 7 4 4 3 3 3 3 4 4 3 3 3 3 3 3 3
2 1 1 2 2 2 3 4 4 5 5 5 6 8 9 9 9 9 9 8 8 7 8 9 8 6 6 6 8 4 4 4 4 3 3 3 3 3 3 3 3 3 3 3
1 1 1 2 3 3 3 4 4 5 6 6 7 8 9 10 9 8 8 9 8 8 8 11 7 6 6 7 8 4 4 4 4 3 3 3 3 3 3 3 3 3 3 3
1 1 2 2 3 4 4 4 4 6 7 7 8 8 9 10 9 9 8 8 9 12 9 6 5 8 9 9 5 4 5 5 4 4 4 4 4 4 3 3 4 4 3 3
2 2 2 3 4 5 5 5 5 6 7 8 8 9 9 9 8 8 10 8 7 11 9 6 9 12 13 8 5 5 5 5 5 4 4 4 4 4 4 4 3 4 4 4
2 2 3 3 3 4 6 6 6 6 7 8 8 9 8 8 8 7 8 12 13 13 8 9 13 13 12 6 5 4 5 5 4 4 4 4 4 4 4 4 4 4 4 5
2 2 3 3 4 5 6 7 7 7 7 7 8 8 7 6 8 9 8 10 13 13 8 10 13 13 8 5 5 5 5 5 4 4 4 4 4 4 4 4 4 4 4 5
2 2 3 4 4 5 5 5 6 6 7 7 7 7 7 7 8 8 8 9 10 11 9 7 7 8 6 5 5 5 5 5 5 4 4 4 4 4 4 4 5 4 5 5
2 3 3 4 4 4 5 5 6 7 7 8 9 8 8 8 8 8 8 8 8 7 7 7 6 6 5 5 5 5 4 4 4 3 3 4 4 4 5 5 5 4 5 5
Wind_Direction
255 267 272 271 273 267 248 240 248 264 273 282 290 297 302 306 312 319 325 330 332 333 329 326 328 328 327 322 313 303 300 301 284 281 275 267 243 234 237 237 226 218 215 206
274 267 269 272 270 262 255 248 247 262 274 276 289 299 304 308 312 320 324 325 327 329 328 325 324 324 323 323 316 309 300 298 293 298 295 279 271 254 250 243 230 223 221 206
278 300 306 274 255 239 230 225 224 249 263 293 307 308 306 304 303 310 317 321 323 323 320 318 316 315 314 313 313 314 311 303 298 300 291 273 276 256 252 254 245 234 226 208
284 327 262 249 245 231 241 254 243 250 267 284 288 292 291 283 291 309 316 320 320 320 317 315 314 313 310 316 318 315 317 311 302 299 293 280 271 269 255 252 236 235 218 212
236 265 275 285 273 231 234 273 249 241 266 284 297 310 301 287 299 298 304 310 311 312 312 314 315 316 314 320 319 319 316 312 299 291 290 283 268 270 265 255 250 230 209 205
216 241 255 255 255 261 352 282 260 229 265 286 315 314 297 303 312 310 313 313 315 317 319 320 319 321 316 312 312 309 304 299 297 289 286 280 270 261 276 261 249 226 221 212
226 241 262 257 246 129 219 258 263 247 259 266 253 253 275 296 302 303 306 308 315 319 319 316 319 324 315 310 306 301 304 305 305 302 293 284 279 269 276 270 245 223 223 227
201 225 251 226 168 196 230 252 254 259 260 261 264 271 281 288 293 301 306 310 316 317 313 312 314 320 313 301 300 304 308 307 307 307 303 293 279 279 278 252 209 226 216 250
202 221 238 201 211 231 233 249 255 259 264 263 268 275 283 286 292 296 299 304 309 309 309 310 311 310 303 298 305 311 311 304 303 305 302 294 270 264 279 235 202 224 217 241
241 253 252 256 259 260 250 249 255 255 258 258 264 274 280 287 292 297 299 301 305 309 307 306 306 304 294 294 300 297 293 292 296 303 306 306 287 258 256 243 215 219 227 231
246 261 275 260 248 252 255 256 260 263 259 256 260 270 272 279 285 290 294 297 299 296 296 297 302 304 302 293 299 299 297 299 303 299 295 301 303 279 260 250 236 226 225 218
245 236 230 249 243 239 247 255 257 261 267 265 257 265 273 279 283 287 292 296 298 299 297 298 302 302 305 300 296 296 300 299 293 292 293 294 306 316 302 262 260 248 238 232
244 251 244 256 259 248 246 252 255 253 257 267 270 267 273 280 283 286 290 294 293 294 297 299 300 301 302 302 295 286 281 284 285 285 284 288 289 295 312 330 307 246 239 236
243 249 257 256 256 255 249 251 256 260 262 264 267 274 279 283 289 290 291 292 291 293 296 298 300 298 298 302 295 283 277 280 280 272 270 266 263 263 253 262 289 301 283 234
241 233 241 251 259 262 257 258 265 270 276 278 276 280 285 288 289 290 292 296 298 297 298 299 298 298 302 303 293 282 279 277 274 268 264 258 257 260 249 238 240 257 290 291
239 238 239 246 256 261 261 258 261 269 273 276 282 285 285 285 287 291 296 300 300 298 297 297 294 296 301 301 297 292 285 284 282 272 268 267 261 258 253 238 232 227 230 225
234 245 242 250 255 255 253 253 256 265 274 277 282 287 292 296 298 298 299 297 291 288 290 290 292 298 300 298 294 290 285 286 289 284 265 261 258 254 251 237 228 230 228 223
229 238 236 237 244 252 261 265 267 271 274 279 289 294 295 295 294 296 298 302 303 300 295 290 293 301 300 299 294 285 280 274 271 264 265 265 265 252 246 234 222 225 231 219
241 241 242 239 237 241 258 271 277 279 284 290 293 290 289 288 290 292 295 299 299 299 299 296 300 303 296 295 297 285 276 268 270 267 260 267 276 260 247 230 219 218 211 195
248 244 252 280 288 277 278 287 291 291 289 290 291 293 295 295 295 295 295 290 282 280 289 294 296 292 291 292 293 280 272 266 262 260 257 248 248 253 247 228 216 209 199 194
256 290 308 308 310 308 301 300 299 297 299 297 291 291 293 297 298 298 297 295 294 291 294 296 295 289 292 292 290 279 272 266 261 254 251 245 241 245 241 226 207 199 194 195
249 275 293 301 306 308 310 308 302 300 302 302 299 297 297 299 300 297 285 282 293 300 302 293 289 288 294 294 282 274 271 266 258 251 247 242 238 237 227 214 200 195 192 195
259 278 288 294 294 299 306 306 302 299 297 297 297 296 294 294 296 296 297 296 298 299 301 290 290 294 295 294 280 271 268 263 256 250 244 241 239 227 214 210 203 193 190 189
274 291 296 301 302 302 303 304 303 300 295 293 292 292 293 297 296 289 286 297 303 301 297 293 296 297 298 292 279 272 267 259 251 246 243 239 229 216 212 206 199 194 190 182
281 290 296 301 301 297 298 305 307 302 298 296 294 294 292 288 290 296 297 297 299 301 299 299 299 300 299 289 281 276 271 258 248 240 234 230 218 208 207 206 199 192 186 181
285 288 287 283 284 290 296 299 299 300 301 302 302 300 299 297 294 295 296 297 296 298 298 295 296 297 292 285 279 276 270 264 259 248 229 222 213 207 206 202 194 192 185 178
300 301 303 304 301 297 295 293 294 296 298 299 300 301 301 300 299 298 298 299 299 298 298 296 293 289 285 282 279 276 273 264 250 235 224 218 212 206 201 194 189 186 178 171
Height
1486 1481 1481 1478 1473 1471 1472 1470 1468 1452 1444 1433 1429 1427 1423 1420 1415 1411 1407 1403 1398 1394 1390 1386 1382 1379 1377 1374 1373 1372 1371 1371 1370 1371 1371 1372 1372 1373 1375 1376 1378 1382 1385 1388
1483 1477 1476 1470 1461 1459 1459 1457 1454 1447 1439 1429 1427 1424 1421 1417 1413 1409 1405 1402 1397 1393 1388 1384 1381 1378 1375 1373 1371 1369 1368 1368 1368 1368 1369 1369 1369 1370 1371 1373 1375 1377 1380 1383
1482 1477 1474 1464 1450 1449 1448 1445 1444 1442 1433 1427 1425 1421 1417 1414 1410 1407 1404 1400 1395 1391 1386 1382 1379 1376 1374 1372 1370 1368 1367 1366 1366 1366 1366 1367 1367 1367 1367 1368 1370 1373 1375 1379
1483 1481 1475 1450 1441 1441 1441 1437 1435 1432 1429 1426 1423 1418 1414 1411 1408 1405 1401 1397 1393 1389 1384 1380 1377 1374 1372 1370 1368 1366 1365 1365 1364 1364 1364 1364 1364 1364 1365 1366 1368 1369 1371 1373
1483 1482 1466 1448 1439 1438 1438 1434 1428 1428 1426 1423 1420 1415 1410 1408 1406 1403 1400 1395 1391 1387 1383 1379 1375 1372 1370 1368 1366 1365 1364 1363 1363 1362 1362 1362 1362 1362 1363 1363 1364 1366 1368 1370
1478 1476 1463 1441 1435 1433 1436 1435 1425 1424 1422 1420 1418 1417 1410 1405 1403 1400 1396 1393 1388 1384 1380 1376 1373 1370 1368 1365 1364 1363 1362 1361 1360 1360 1359 1359 1359 1360 1360 1361 1361 1362 1364 1366
1470 1467 1452 1435 1432 1433 1440 1433 1422 1420 1419 1417 1416 1413 1408 1403 1400 1397 1393 1389 1385 1381 1377 1374 1371 1368 1366 1363 1362 1360 1359 1359 1358 1357 1357 1357 1357 1357 1357 1357 1358 1359 1361 1363
1464 1462 1447 1427 1429 1431 1427 1420 1419 1417 1415 1413 1410 1407 1403 1400 1396 1393 1389 1386 1382 1378 1374 1371 1369 1366 1363 1361 1359 1358 1357 1356 1355 1355 1355 1354 1354 1354 1354 1354 1355 1356 1358 1360
1443 1434 1422 1420 1420 1418 1418 1417 1415 1413 1411 1409 1406 1403 1399 1396 1392 1388 1385 1382 1379 1375 1371 1368 1365 1363 1360 1358 1357 1355 1354 1353 1352 1352 1352 1351 1351 1351 1351 1351 1352 1353 1355 1356
1433 1422 1418 1416 1415 1414 1414 1412 1410 1409 1407 1404 1401 1398 1395 1392 1388 1384 1381 1377 1374 1371 1367 1364 1362 1359 1357 1355 1354 1352 1350 1350 1349 1348 1348 1348 1348 1348 1348 1348 1349 1351 1352 1353
1422 1415 1413 1410 1409 1409 1408 1406 1405 1403 1401 1399 1396 1393 1390 1387 1384 1380 1377 1373 1370 1367 1364 1361 1358 1355 1353 1352 1350 1348 1347 1346 1345 1345 1344 1344 1344 1345 1345 1346 1347 1348 1350 1351
1411 1407 1407 1403 1403 1403 1402 1400 1399 1398 1395 1393 1391 1388 1385 1382 1379 1376 1373 1370 1366 1363 1360 1357 1354 1352 1350 1349 1347 1345 1344 1343 1342 1341 1341 1341 1340 1341 1342 1344 1345 1346 1347 1349
1400 1399 1399 1397 1397 1397 1396 1395 1394 1392 1390 1388 1385 1383 1380 1377 1374 1372 1369 1366 1362 1359 1356 1353 1351 1348 1347 1345 1344 1342 1341 1340 1339 1338 1338 1337 1337 1337 1337 1339 1341 1342 1344 1345
1394 1394 1393 1392 1391 1391 1390 1389 1388 1386 1384 1382 1380 1378 1375 1372 1369 1366 1364 1361 1358 1355 1352 1349 1347 1345 1343 1342 1340 1338 1337 1336 1336 1335 1335 1334 1335 1335 1335 1335 1336 1337 1340 1342
1387 1388 1387 1386 1385 1385 1384 1383 1382 1380 1378 1376 1375 1372 1370 1367 1364 1361 1359 1356 1353 1351 1348 1345 1343 1341 1339 1338 1336 1334 1333 1332 1332 1332 1331 1331 1331 1332 1332 1333 1333 1334 1336 1338
1381 1381 1381 1380 1380 1379 1378 1377 1376 1374 1373 1371 1369 1367 1364 1362 1359 1356 1354 1351 1348 1345 1343 1341 1338 1337 1335 1333 1331 1330 1329 1329 1328 1328 1328 1328 1328 1328 1329 1329 1330 1332 1333 1334
1377 1375 1375 1375 1374 1373 1373 1372 1371 1369 1367 1365 1363 1361 1359 1356 1354 1351 1348 1346 1344 1341 1339 1336 1334 1332 1330 1329 1327 1326 1325 1324 1324 1324 1324 1324 1324 1325 1325 1326 1327 1328 1330 1332
1370 1370 1370 1370 1369 1368 1367 1367 1366 1364 1362 1361 1359 1357 1354 1352 1349 1346 1343 1341 1338 1336 1334 1332 1329 1327 1326 1324 1323 1322 1321 1320 1320 1320 1320 1320 1321 1322 1322 1323 1324 1325 1326 1329
1366 1365 1365 1365 1364 1364 1363 1362 1361 1360 1358 1356 1354 1352 1349 1347 1345 1342 1339 1336 1333 1330 1328 1327 1325 1323 1321 1320 1319 1317 1317 1316 1316 1316 1316 1316 1317 1318 1319 1320 1321 1322 1324 1326
1362 1362 1361 1361 1361 1360 1359 1358 1357 1355 1354 1352 1350 1347 1344 1342 1340 1337 1334 1330 1328 1326 1324 1322 1320 1318 1316 1315 1314 1313 1312 1312 1311 1312 1312 1312 1313 1314 1315 1316 1317 1319 1321 1323
1359 1359 1358 1358 1357 1356 1355 1354 1352 1350 1349 1347 1345 1343 1340 1337 1334 1331 1328 1324 1322 1321 1319 1317 1315 1313 1311 1310 1309 1308 1308 1308 1307 1307 1308 1309 1309 1310 1311 1312 1314 1316 1318 1320
1357 1356 1355 1354 1353 1352 1351 1350 1348 1346 1344 1342 1340 1338 1335 1332 1329 1326 1323 1321 1317 1316 1313 1311 1309 1308 1307 1305 1305 1304 1304 1303 1303 1304 1304 1305 1306 1306 1307 1309 1310 1312 1315 1317
1354 1353 1352 1351 1350 1349 1347 1346 1344 1342 1340 1337 1335 1333 1330 1327 1324 1321 1317 1315 1313 1310 1308 1306 1305 1303 1302 1301 1300 1299 1299 1299 1299 1300 1300 1301 1302 1303 1304 1305 1307 1309 1312 1314
1351 1350 1349 1348 1347 1345 1343 1341 1339 1337 1335 1333 1330 1328 1325 1322 1319 1316 1314 1311 1308 1306 1303 1302 1300 1299 1298 1296 1295 1295 1294 1294 1295 1295 1296 1297 1298 1300 1301 1302 1304 1306 1309 1311
1348 1347 1346 1344 1343 1341 1339 1336 1334 1332 1330 1327 1325 1322 1320 1317 1314 1311 1308 1306 1303 1301 1298 1296 1295 1294 1293 1292 1291 1290 1290 1290 1290 1291 1292 1293 1294 1296 1298 1300 1301 1304 1306 1308
1344 1343 1342 1340 1339 1337 1335 1332 1330 1327 1324 1322 1319 1317 1315 1312 1309 1306 1304 1301 1299 1296 1294 1292 1291 1289 1288 1287 1287 1286 1286 1286 1286 1287 1288 1289 1291 1293 1295 1296 1298 1301 1303 1306
1341 1339 1338 1336 1335 1333 1331 1328 1325 1323 1320 1317 1314 1312 1309 1307 1304 1301 1299 1296 1294 1292 1289 1288 1286 1285 1284 1283 1282 1282 1282 1282 1283 1283 1284 1286 1287 1289 1291 1293 1296 1299 1301 1304